Weather in Bad Kleinkirchheim

Austria     46°48′46″N   13°46′44″E
temp.,
°C
wind,
m/s
gust,
m/s
humid.,
%
clouds,
%
prec.,
mm/h
press.,
hPa
HPBL,
m
13 may, thu
thu1323:00+4nnw239395 0.0 100993
02:00+4nnw2495100 0.0 1008140
05:00+3nnw239599 0.0 100766
08:00+5nnw2391100 0.5 1006305
11:00+8nnw2375100 0.4 1005728
14:00+10nnw1260100 0.6 10041178
17:00+11ne1257100 0.1 10031185
20:00+7nw1181100 0.6 100534
14 may, fri
fri1423:00+3nnw238985 0.1 100853
02:00+3nnw2389100 0.1 100962
05:00+3n2287100 0.0 100948
08:00+7nw117094 0.0 1008389
11:00+10sse216497 0.1 10071232
14:00+9s227597 0.6 1008955
17:00+8w228591 0.8 1008632
20:00+6nw2288100 1.1 100976
15 may, sat
sat1523:00+4n2291100 0.0 101224
02:00+4n2290100 0.0 101223
05:00+4n1191100 0.1 101114
08:00+5wsw0094100 0.6 1012135
11:00+5ssw0096100 1.3 1012375
14:00+6s2291100 1.6 1011530
17:00+7s118863 0.2 1010416
20:00+6ssw1191100 0.3 100925
16 may, sun
sun1623:00+5w1197100 0.0 101022
02:00+5wnw119899 0.3 100933
05:00+5wsw0098100 0.9 100825
08:00+5nnw1198100 2.8 1010221
11:00+5nnw1196100 1.5 1011307
14:00+6s119495 2.0 1011315
17:00+10sse227788 0.1 1008678
20:00+6ese1196100 0.1 101028
17 may, mon
mon1723:00+6ese0093100 0.0 100915
02:00+6wnw1297100 0.4 100983
05:00+6n1193100 0.9 100928
08:00+7ne1191100 2.2 1010217
11:00+7s1189100 4.6 1010454
14:00+7s1297100 6.5 1009344
17:00+6n0195100 3.3 1008455
20:00+2nnw2399100 15.9 1011200